Wind_Speed
56 57 58 58 58 59 60 61 62 61 58 55 55 55 55 55 56 56 57 56 56 55 55 56 56 56 56 57 57 57 57 58 58 57 56 55 54 53
58 58 58 58 58 59 59 60 61 61 58 54 54 54 54 54 54 55 54 53 53 53 54 54 55 55 55 55 55 55 56 55 54 54 55 54 53 51
58 58 58 58 58 58 58 58 59 59 57 52 52 51 52 52 51 50 51 51 51 51 51 50 50 50 51 51 52 52 53 53 52 52 52 51 52 52
58 58 58 58 57 57 57 57 57 55 53 51 49 48 49 49 48 47 47 47 47 46 46 45 45 46 46 46 47 47 48 49 49 50 50 50 50 50
58 57 57 57 56 56 56 55 53 52 51 49 48 47 47 47 46 45 44 43 43 41 40 39 40 40 40 40 42 43 44 45 46 47 47 48 48 47
56 56 56 55 55 54 53 51 50 49 48 47 47 46 45 44 44 43 41 39 38 36 35 34 34 35 36 37 38 39 40 41 43 44 44 45 44 44
54 54 53 53 53 52 51 50 49 47 46 46 45 45 43 41 40 39 37 36 34 34 31 30 29 31 32 34 35 36 36 36 37 38 39 39 40 41
52 52 51 51 50 49 49 48 46 45 45 44 43 42 40 37 36 35 34 32 31 29 28 26 25 26 26 27 28 29 30 30 31 33 34 35 36 37
50 49 49 48 47 46 44 43 43 42 42 42 41 39 36 33 33 32 30 28 26 25 24 22 22 22 23 23 24 25 26 26 27 29 31 32 33 34
47 46 46 44 43 42 41 40 39 38 39 39 37 35 32 30 29 28 25 24 23 22 21 20 20 19 18 19 22 23 23 24 26 27 29 29 29 29
44 44 43 42 40 40 39 37 36 35 35 34 33 30 28 27 26 25 22 21 19 17 17 16 17 17 16 17 19 20 22 23 23 24 25 26 27 27
41 41 39 39 38 37 36 34 33 32 31 29 28 26 24 24 23 21 19 18 16 13 12 13 13 14 15 15 16 18 19 20 21 22 22 23 24 23
39 37 36 36 35 34 33 32 31 29 27 26 25 23 21 20 19 17 16 15 13 11 10 11 11 12 13 13 14 15 18 19 20 20 19 18 19 21
36 34 33 32 32 31 31 29 28 27 25 24 23 21 19 18 16 14 13 12 11 10 9 9 9 10 11 11 11 13 15 16 17 17 17 17 16 17
34 32 31 30 29 28 27 26 26 25 23 22 20 17 15 14 13 12 11 10 10 9 9 9 9 9 9 9 9 10 11 13 14 14 14 15 14 14
31 29 28 27 26 25 24 24 24 22 20 17 15 13 11 10 10 10 9 8 9 8 8 8 7 7 7 8 9 9 9 10 12 13 12 12 13 13
28 27 26 25 24 23 22 21 20 18 15 13 11 9 8 7 7 7 7 6 6 5 5 7 7 7 7 8 8 8 9 10 10 10 10 10 10 10
26 25 24 23 21 20 18 17 16 14 11 10 9 8 7 6 6 5 4 3 3 2 4 5 6 6 6 6 6 6 6 7 6 7 7 8 8 9
23 22 21 20 18 17 15 14 12 11 10 9 7 6 5 5 4 3 2 1 2 3 4 5 5 5 5 5 5 5 5 5 6 6 6 6 7 7
20 19 18 17 15 13 11 10 10 9 8 6 5 4 4 4 3 2 1 3 4 5 5 5 4 4 4 3 4 5 5 5 6 6 6 6 6 6
17 16 14 13 11 10 9 8 8 7 6 5 3 3 3 3 2 1 3 4 5 4 4 4 3 3 3 3 4 4 5 4 5 5 5 6 6 6
13 12 11 10 9 8 7 6 6 5 4 3 2 2 2 2 2 3 4 4 4 4 4 4 3 3 4 4 5 5 5 5 5 6 5 6 6 7
10 9 8 8 7 7 6 6 5 5 4 3 2 2 2 1 2 3 3 3 4 4 4 4 5 5 5 6 6 7 7 6 6 7 6 7 8 9
Wind_Direction
296 297 297 297 297 297 297 297 297 296 295 293 291 291 289 288 288 285 283 279 276 273 271 270 267 266 263 261 258 256 256 255 255 254 253 253 255 255
296 297 297 297 298 298 298 298 298 297 296 294 292 292 291 290 288 286 284 279 277 274 273 271 268 265 264 261 259 256 256 255 255 253 251 252 253 254
297 297 298 298 298 298 298 298 299 298 297 295 294 293 292 292 290 287 284 281 278 278 275 272 269 265 263 261 259 256 254 253 252 251 250 251 254 255
296 297 298 298 298 298 299 299 299 298 297 296 295 295 294 294 292 288 286 283 280 279 276 272 268 265 264 262 258 255 254 251 250 250 249 251 252 253
297 297 298 298 298 299 299 299 299 298 297 297 297 296 297 296 294 289 287 284 282 281 277 272 269 266 262 259 257 254 252 250 249 249 248 250 251 253
297 298 298 298 299 300 299 299 298 298 297 298 299 298 299 297 295 291 288 285 284 282 280 275 271 266 261 257 254 253 252 250 249 248 249 250 250 252
297 298 299 299 300 300 300 299 299 298 297 299 300 300 300 298 296 293 290 287 284 283 280 277 273 267 260 254 252 252 252 250 249 248 247 248 249 251
298 299 299 300 300 300 300 299 298 298 299 299 301 301 301 300 298 297 295 288 285 284 280 277 275 270 259 252 250 248 246 245 245 245 244 245 248 251
299 300 300 301 300 300 300 300 300 300 300 301 302 302 300 299 299 298 296 293 288 284 280 276 274 269 258 252 248 242 240 241 242 243 242 244 247 249
301 300 300 301 301 300 300 300 300 301 302 302 302 301 299 297 298 300 298 294 288 284 278 276 270 264 256 245 241 239 238 238 241 244 243 244 248 251
301 301 301 301 302 302 302 301 302 303 303 303 303 300 298 298 300 300 299 297 290 281 277 275 268 263 251 242 237 238 238 237 240 241 244 246 245 246
302 302 302 302 302 302 302 304 305 305 304 303 304 302 300 300 299 298 297 296 293 280 273 274 269 262 250 241 235 234 235 237 240 242 243 244 243 245
302 302 302 303 303 303 303 305 307 307 307 306 305 304 302 299 295 293 291 290 290 284 275 273 266 258 247 237 236 237 236 235 237 239 238 237 241 245
301 301 302 303 304 304 304 306 307 307 307 307 306 304 300 297 293 289 285 284 285 281 275 271 266 253 241 231 234 232 230 229 233 238 240 240 243 245
301 301 302 302 304 305 306 306 307 307 307 308 308 305 302 299 292 288 285 282 278 270 265 264 260 247 238 231 226 222 224 226 230 236 242 241 241 242
301 302 302 302 304 306 307 307 307 308 309 311 313 312 307 302 297 292 288 281 274 270 257 249 245 234 225 219 214 217 225 229 233 238 242 239 237 240
300 299 299 301 301 302 304 306 309 310 310 312 317 320 319 314 308 306 299 292 283 274 240 221 216 211 208 208 212 220 231 236 235 233 233 232 231 231
297 297 298 299 299 300 302 305 309 312 313 316 318 323 325 323 319 311 302 291 280 244 207 200 197 197 202 208 217 224 232 233 229 222 224 223 221 224
296 298 299 299 298 301 302 303 308 310 312 315 318 330 338 337 333 320 293 233 184 165 168 179 190 203 211 209 212 221 222 220 213 205 202 203 208 216
297 298 300 300 299 300 303 305 309 311 312 313 320 339 347 348 347 346 121 133 143 149 156 169 183 199 209 202 201 206 205 199 196 195 196 198 201 204
297 296 296 297 296 297 304 309 311 309 312 315 324 345 355 359 7 69 117 125 134 140 144 153 162 177 190 197 193 185 180 177 176 177 178 182 182 179
297 296 295 293 293 295 301 308 311 311 312 310 319 340 359 11 51 110 122 127 128 127 131 142 152 158 164 165 164 162 157 154 154 152 151 154 154 151
296 296 295 293 295 298 297 300 303 304 302 299 307 336 354 23 109 127 122 116 113 117 123 130 136 143 151 152 149 146 143 142 143 145 145 144 144 142
Height
5632 5626 5621 5616 5611 5605 5599 5593 5588 5585 5586 5583 5576 5571 5565 5561 5557 5554 5551 5550 5548 5548 5548 5548 5549 5551 5553 5556 5559 5563 5567 5571 5576 5580 5585 5589 5592 5595
5618 5613 5608 5603 5597 5591 5586 5580 5573 5567 5566 5566 5561 5555 5550 5546 5542 5537 5535 5533 5532 5531 5531 5531 5532 5534 5536 5539 5542 5545 5550 5555 5559 5564 5568 5573 5578 5581
5605 5599 5594 5589 5584 5578 5572 5566 5560 5553 5549 5550 5546 5541 5535 5531 5527 5523 5520 5517 5517 5515 5514 5514 5515 5517 5519 5522 5525 5529 5533 5539 5543 5548 5553 5559 5563 5568
5591 5586 5581 5575 5570 5564 5558 5552 5546 5540 5535 5534 5532 5528 5523 5517 5513 5509 5506 5503 5501 5500 5499 5499 5499 5501 5504 5506 5509 5514 5518 5523 5529 5534 5540 5546 5550 5553
5577 5572 5567 5561 5556 5551 5545 5539 5534 5528 5523 5519 5518 5515 5510 5504 5500 5497 5493 5490 5488 5486 5485 5484 5485 5487 5489 5492 5496 5501 5505 5511 5516 5522 5526 5531 5536 5541
5564 5559 5553 5548 5543 5537 5532 5527 5522 5517 5512 5508 5505 5502 5498 5493 5488 5484 5482 5480 5477 5474 5474 5473 5474 5475 5478 5481 5485 5490 5494 5499 5504 5509 5515 5520 5525 5529
5551 5546 5540 5535 5530 5524 5519 5515 5510 5505 5501 5497 5494 5491 5487 5482 5477 5473 5471 5470 5468 5465 5465 5465 5465 5467 5468 5471 5475 5479 5484 5489 5494 5499 5504 5510 5514 5519
5539 5534 5529 5523 5518 5513 5508 5503 5498 5494 5490 5486 5483 5479 5476 5472 5468 5464 5462 5460 5459 5459 5456 5457 5457 5458 5460 5463 5467 5471 5475 5480 5485 5490 5495 5500 5504 5509
5527 5522 5517 5512 5507 5502 5498 5493 5489 5483 5479 5476 5473 5469 5466 5463 5459 5457 5454 5452 5450 5450 5449 5450 5451 5452 5454 5456 5460 5464 5469 5473 5477 5482 5487 5491 5496 5499
5515 5511 5506 5501 5496 5492 5488 5485 5480 5476 5471 5467 5464 5461 5457 5454 5451 5449 5447 5445 5444 5444 5443 5444 5446 5447 5449 5452 5455 5459 5463 5467 5471 5475 5479 5483 5487 5491
5506 5501 5496 5492 5487 5482 5479 5476 5473 5469 5464 5460 5456 5453 5450 5448 5445 5442 5441 5439 5439 5440 5439 5439 5441 5442 5445 5448 5451 5454 5458 5462 5466 5469 5473 5476 5480 5484
5498 5493 5487 5483 5478 5474 5470 5467 5464 5461 5457 5454 5450 5447 5445 5442 5440 5437 5435 5434 5434 5435 5435 5436 5437 5438 5441 5444 5447 5451 5454 5458 5461 5465 5468 5471 5474 5477
5489 5485 5480 5475 5471 5467 5463 5460 5456 5453 5450 5447 5444 5442 5439 5437 5435 5433 5432 5431 5431 5431 5432 5433 5434 5436 5438 5441 5445 5447 5450 5453 5457 5460 5463 5466 5469 5472
5480 5476 5472 5468 5464 5460 5457 5453 5450 5447 5444 5442 5439 5436 5434 5433 5431 5430 5429 5429 5429 5429 5429 5430 5432 5434 5436 5439 5441 5444 5447 5450 5453 5456 5459 5461 5464 5466
5472 5469 5465 5461 5458 5454 5451 5448 5445 5442 5439 5437 5434 5432 5430 5428 5427 5427 5427 5426 5427 5427 5427 5428 5430 5432 5434 5436 5439 5441 5444 5447 5449 5452 5455 5457 5460 5463
5465 5462 5458 5455 5452 5449 5446 5443 5440 5437 5435 5432 5430 5428 5427 5426 5425 5424 5424 5424 5425 5425 5425 5427 5428 5431 5432 5435 5437 5440 5442 5445 5447 5449 5451 5454 5457 5459
5458 5456 5453 5450 5447 5444 5442 5439 5436 5434 5431 5429 5428 5426 5425 5424 5423 5423 5423 5423 5423 5424 5425 5427 5428 5430 5432 5434 5436 5438 5441 5443 5445 5446 5449 5451 5454 5456
5452 5450 5447 5444 5442 5439 5437 5435 5433 5431 5429 5427 5426 5425 5424 5423 5422 5422 5422 5422 5423 5423 5425 5426 5428 5430 5432 5434 5435 5437 5438 5441 5443 5445 5447 5449 5451 5454
5446 5444 5441 5439 5437 5435 5434 5432 5431 5429 5427 5426 5425 5424 5423 5422 5422 5422 5421 5422 5422 5423 5425 5426 5428 5430 5432 5433 5435 5436 5437 5439 5441 5443 5445 5447 5449 5451
5440 5438 5437 5435 5433 5432 5431 5430 5428 5427 5426 5425 5424 5423 5423 5422 5422 5421 5422 5422 5423 5424 5425 5427 5428 5430 5431 5433 5434 5435 5436 5438 5440 5441 5443 5445 5448 5450
5435 5434 5433 5431 5430 5429 5428 5427 5426 5425 5425 5424 5424 5423 5423 5422 5422 5422 5422 5423 5424 5425 5426 5427 5428 5430 5431 5432 5434 5435 5436 5437 5439 5440 5443 5445 5447 5449
5432 5431 5430 5429 5428 5427 5427 5426 5425 5424 5424 5423 5423 5423 5423 5423 5422 5423 5423 5424 5425 5425 5426 5427 5429 5430 5431 5432 5433 5434 5436 5437 5439 5440 5443 5445 5447 5449
5429 5428 5427 5426 5426 5425 5425 5425 5424 5424 5423 5423 5422 5422 5422 5423 5423 5424 5424 5425 5425 5426 5427 5428 5429 5430 5431 5432 5434 5435 5437 5439 5440 5442 5444 5446 5448 5450